{"data":{"norad_id":48907,"epoch":"2026-09-20T14:56:33.293184Z","epoch_age_seconds":87189,"freshness":"FRESH","line1":"1 48907U 21059AE  26263.62260756  .00017670  00000+0  23115-3 0  9993","line2":"2 48907  97.6991 100.9562 0004549  17.1078 343.0329 15.58685675291978","mean_motion":15.58685675,"eccentricity":0.0004549,"inclination_deg":97.6991,"raan_deg":100.9562,"arg_perigee_deg":17.1078,"mean_anomaly_deg":343.0329,"bstar":0.00023115,"rev_number":29197,"period_min":92.385528596072,"perigee_km":388.38045450876,"apogee_km":394.53943380856,"semimajor_km":6769.5969441587,"source":"CELESTRAK","updated_at":"2026-09-21T09:00:07.902890Z"}}